[[{"header":{"parameterUnit":"m.s-1","parameterCategory":1,"la1":30.2991,"la2":30.254,"lo1":-89.0895,"lo2":-89.0444,"dy":0.0017,"dx":0.0017,"nx":28,"ny":28,"refTime":"2023-09-11T03:00:00:Z","depth":0,"parameterNumber":2,"parameterNumberName":"U-component_of_WINDS"},"data":[0,0,0,0,0,0,0,0,0,0,0,0,0,0,0,0,0,0,0,0,0,0,0,0,0,0,0,0,0,0,0,0,0,0,0,0,0,0,0,0,0,0,0,0,0,0,0,0,0,0,0,0,0,0,0,0,0,0,0.7058,0.7058,0,0.7083,0.7083,0.7083,0.708,0.7079,0.7079,0.7078,0.7102,0.7103,0.7104,0,0,0,0,0,0,0,0,0,0,0,0,0,0.7004,0.7005,0.7058,0.7058,0.7059,0.7083,0.7083,0.7084,0.708,0.7079,0.7079,0.7078,0.7102,0.7103,0.7104,0,0,0,0,0,0,0,0,0,0,0,0,0,0.7028,0.7006,0.7058,0.706,0.706,0.7083,0.7083,0.7084,0.708,0.7079,0.7079,0.7078,0.7101,0.7103,0.7104,0.7126,0,0,0.7109,0.711,0,0,0,0,0,0,0,0,0.7027,0.703,0.7059,0.706,0.706,0.7078,0.7073,0.7098,0.708,0.7072,0.7078,0.7078,0.7094,0.7096,0.7102,0.7127,0.7128,0.7109,0.711,0.7111,0.7111,0,0,0,0,0,0,0,0.7025,0.7029,0.7068,0.706,0.706,0.7058,0.7061,0.7078,0.7086,0.7073,0.7073,0.7076,0.7095,0.7101,0.7103,0.7129,0.7109,0.7111,0.7112,0.7112,0.7171,0.7172,0,0,0,0,0,0,0.7023,0.7028,0.7067,0.7069,0.7042,0.706,0.7063,0.7073,0.7086,0.7088,0.7076,0.7076,0.7099,0.7101,0.7104,0.7129,0.7111,0.7112,0.7113,0.717,0.7171,0.7172,0,0,0,0,0,0,0.7022,0.7027,0.7066,0.7048,0.7053,0.7061,0.7072,0.7073,0.708,0.7089,0.709,0.7081,0.7098,0.7102,0.712,0.713,0.7113,0.7114,0.717,0.7171,0.7172,0.718,0,0,0,0,0,0,0.7021,0.7027,0.7036,0.7048,0.7054,0.7083,0.7073,0.7074,0.7083,0.7082,0.7094,0.7095,0.7098,0.7118,0.7122,0.7132,0.7116,0.7169,0.717,0.7171,0.7179,0.7182,0.7183,0,0,0,0,0,0.7019,0.7037,0.7036,0.7041,0.7066,0.7084,0.7087,0.709,0.7084,0.7092,0.7098,0.7095,0.7128,0.712,0.7124,0.7135,0.7168,0.717,0.7171,0.7178,0.7181,0.7183,0,0,0,0,0,0,0.7025,0.7039,0.7038,0.7061,0.7071,0.7083,0.7094,0.7093,0.7105,0.7103,0.7106,0.7109,0.7128,0.7133,0.7124,0.7156,0.7147,0.715,0.7151,0.7154,0.7156,0.7154,0.7117,0,0,0,0,0,0.7029,0.7044,0.7055,0.7074,0.7079,0.7086,0.7094,0.7095,0.7105,0.711,0.7117,0.7126,0.7139,0.7147,0.7159,0.718,0.7182,0.7189,0.7191,0.7193,0.7195,0.7205,0.7208,0.7177,0.7177,0.7177,0,0,0.7038,0.7047,0.7056,0.7075,0.7083,0.7097,0.7089,0.7104,0.7114,0.7112,0.713,0.7135,0.7146,0.7166,0.7175,0.7171,0.7204,0.7195,0.7196,0.7197,0.7207,0.7209,0.7212,0.7178,0.7178,0.7177,0,0,0.706,0.7069,0.7086,0.7094,0.7106,0.711,0.7114,0.7126,0.7129,0.7147,0.7145,0.7157,0.7179,0.7186,0.7192,0.7216,0.7213,0.722,0.7231,0.724,0.7243,0.7245,0.7252,0.7255,0.7222,0.7222,0.7222,0,0.7069,0.709,0.7094,0.7109,0.7117,0.7116,0.7131,0.7139,0.7154,0.7159,0.7155,0.7181,0.7188,0.7209,0.7215,0.722,0.7224,0.7218,0.7242,0.7244,0.7246,0.7253,0.7256,0.7222,0.7222,0.7222,0.7222,0,0.7099,0.7114,0.7126,0.7141,0.715,0.7165,0.717,0.7179,0.7179,0.7184,0.7201,0.721,0.7223,0.7228,0.7229,0.7248,0.7245,0.7242,0.7233,0.725,0.7256,0.7259,0.7223,0.7223,0.7223,0.7223,0,0,0.7126,0.7143,0.7147,0.7153,0.7166,0.7177,0.7191,0.7204,0.7211,0.7222,0.7233,0.7251,0.7247,0.7254,0.7256,0.7265,0.7281,0.726,0.726,0.7262,0.7301,0.7303,0.7306,0.728,0.728,0.7281,0.73,0,0.7149,0.7175,0.7178,0.7201,0.7214,0.7212,0.7225,0.7233,0.7238,0.7248,0.7253,0.7265,0.726,0.7264,0.7273,0.7277,0.7289,0.7276,0.7289,0.729,0.7285,0.731,0.7312,0.733,0.7303,0.7303,0.7304,0,0.7178,0.7189,0.7214,0.7224,0.7229,0.724,0.7252,0.7262,0.7272,0.7274,0.7282,0.7282,0.7296,0.7287,0.7306,0.7297,0.7302,0.7305,0.7306,0.7306,0.7297,0.731,0.7336,0.7338,0.7308,0.7307,0.7307,0,0.7193,0.7215,0.7231,0.7237,0.725,0.7257,0.7263,0.7271,0.7279,0.7289,0.7293,0.7304,0.731,0.7319,0.7321,0.7315,0.7339,0.7331,0.734,0.734,0.7344,0.7344,0.7371,0.735,0.735,0.735,0.735,0,0.7217,0.7232,0.7238,0.7249,0.7264,0.7267,0.7283,0.7288,0.7295,0.7306,0.7305,0.7315,0.7318,0.7328,0.733,0.7344,0.7347,0.7348,0.7349,0.7348,0.7347,0.7351,0.7349,0.735,0.735,0.735,0.735,0,0.7237,0.7242,0.726,0.727,0.7273,0.7284,0.7292,0.7301,0.7305,0.7318,0.7321,0.7327,0.7339,0.7342,0.7356,0.7358,0.7373,0.7373,0.737,0.737,0.7378,0.7377,0.7407,0.7411,0.7389,0.7389,0.7389,0,0.7251,0.7262,0.7273,0.728,0.7286,0.7298,0.7305,0.7308,0.7316,0.7327,0.7334,0.7346,0.7355,0.7373,0.7378,0.7388,0.7387,0.7397,0.7389,0.7387,0.7386,0.7385,0.7385,0.7398,0.7399,0.7399,0.7399,0,0.7275,0.7277,0.7288,0.7299,0.7308,0.7317,0.7326,0.7331,0.7336,0.7344,0.7356,0.7363,0.7377,0.7388,0.7398,0.7403,0.7401,0.7402,0.7404,0.7403,0.74,0.74,0.7373,0.7401,0.7401,0.74,0.74,0.74,0.7292,0.7301,0.731,0.7322,0.7328,0.7336,0.7345,0.735,0.736,0.7372,0.7373,0.7385,0.7393,0.7407,0.7412,0.7421,0.7418,0.7422,0.7423,0.7423,0.7423,0.74,0.7423,0.7423,0.7423,0.7423,0.7423,0,0.7315,0.732,0.7331,0.7343,0.7352,0.7351,0.736,0.7367,0.7378,0.7386,0.7395,0.7408,0.7418,0.7424,0.7434,0.744,0.7439,0.7442,0.7441,0.7442,0.7426,0.7422,0.7442,0.7442,0.7442,0.7442,0.7442,0.7442,0.7328,0.7343,0.7345,0.7363,0.7369,0.7381,0.7386,0.7393,0.7399,0.7414,0.7422,0.7426,0.7433,0.7443,0.7452,0.7453,0.7456,0.7459,0.746,0.7445,0.7443,0.7441,0.7438,0.746,0.746,0.7475,0.7475,0.7475]},{"header":{"parameterUnit":"m.s-1","parameterCategory":1,"la1":30.2991,"la2":30.254,"lo1":-89.0895,"lo2":-89.0444,"dy":0.0017,"dx":0.0017,"nx":28,"ny":28,"refTime":"2023-09-11T03:00:00:Z","depth":0,"parameterNumber":3,"parameterNumberName":"V-component_of_WINDS"},"data":[0,0,0,0,0,0,0,0,0,0,0,0,0,0,0,0,0,0,0,0,0,0,0,0,0,0,0,0,0,0,0,0,0,0,0,0,0,0,0,0,0,0,0,0,0,0,0,0,0,0,0,0,0,0,0,0,0,0,2.72,2.72,0,2.7213,2.7214,2.7214,2.7175,2.7174,2.7173,2.7172,2.7184,2.7186,2.7187,0,0,0,0,0,0,0,0,0,0,0,0,0,2.7139,2.7141,2.72,2.72,2.72,2.7213,2.7214,2.7214,2.7176,2.7174,2.7173,2.7171,2.7184,2.7186,2.7187,0,0,0,0,0,0,0,0,0,0,0,0,0,2.716,2.7141,2.72,2.7183,2.7182,2.7213,2.7214,2.7214,2.7176,2.7174,2.7172,2.7171,2.7183,2.7185,2.7188,2.7236,0,0,2.7194,2.7195,0,0,0,0,0,0,0,0,2.7159,2.7163,2.7185,2.7184,2.7183,2.7191,2.7197,2.7221,2.7176,2.7178,2.7172,2.717,2.7188,2.719,2.7196,2.7237,2.7237,2.7194,2.7196,2.7197,2.7197,0,0,0,0,0,0,0,2.7158,2.7162,2.7205,2.7186,2.7184,2.7174,2.7175,2.7201,2.7193,2.7178,2.7175,2.7177,2.7187,2.7194,2.7196,2.7238,2.7194,2.7196,2.7198,2.7198,2.7317,2.7318,0,0,0,0,0,0,2.7159,2.7161,2.7205,2.7206,2.7166,2.7176,2.7178,2.719,2.7192,2.7191,2.7179,2.7175,2.7191,2.7193,2.7196,2.7251,2.7197,2.7199,2.72,2.7315,2.7317,2.7319,0,0,0,0,0,0,2.7158,2.7163,2.7204,2.7183,2.7187,2.7179,2.7194,2.7191,2.7198,2.7193,2.7191,2.7188,2.719,2.7193,2.7226,2.7251,2.72,2.7202,2.7313,2.7315,2.7318,2.7363,0,0,0,0,0,0,2.7156,2.7163,2.7182,2.7183,2.7188,2.7235,2.7195,2.7193,2.7202,2.7198,2.7201,2.72,2.7189,2.7223,2.7228,2.7253,2.7203,2.731,2.7314,2.7317,2.736,2.7367,2.7374,0,0,0,0,0,2.7154,2.7195,2.7183,2.7189,2.7212,2.7236,2.7239,2.7226,2.7205,2.7223,2.7219,2.72,2.7248,2.7227,2.7232,2.7258,2.7309,2.7313,2.7317,2.7356,2.7366,2.7374,0,0,0,0,0,0,2.7197,2.7195,2.7182,2.7224,2.7231,2.723,2.7253,2.7237,2.725,2.7245,2.7228,2.7229,2.7264,2.7265,2.7241,2.7305,2.7275,2.728,2.7303,2.7312,2.7319,2.7317,2.7205,0,0,0,0,0,2.7211,2.7231,2.7228,2.7266,2.727,2.7261,2.7271,2.726,2.7266,2.7269,2.7267,2.7274,2.729,2.7301,2.7316,2.736,2.7359,2.7381,2.7388,2.7394,2.7398,2.7419,2.7428,2.7333,2.7333,2.7333,0,0,2.7241,2.7242,2.7256,2.7274,2.7278,2.7298,2.7263,2.7287,2.7302,2.7272,2.7302,2.7302,2.7308,2.7346,2.7362,2.7347,2.7424,2.7399,2.7404,2.7405,2.7424,2.7433,2.7441,2.7336,2.7335,2.7335,0,0,2.7305,2.7309,2.7339,2.7344,2.735,2.7343,2.7351,2.7352,2.735,2.7381,2.7358,2.7375,2.7405,2.7409,2.7415,2.7479,2.7461,2.7485,2.7522,2.7543,2.755,2.7557,2.7577,2.7585,2.7489,2.749,2.749,0,2.7341,2.7371,2.7357,2.7381,2.7389,2.7364,2.7393,2.7398,2.7409,2.7415,2.7398,2.7433,2.7435,2.7472,2.7488,2.7494,2.7501,2.7483,2.755,2.7557,2.7562,2.7582,2.759,2.7492,2.7492,2.7492,2.7491,0,2.7414,2.7435,2.7459,2.7469,2.748,2.7507,2.7496,2.7509,2.7497,2.7492,2.7522,2.7524,2.7538,2.7546,2.7536,2.7582,2.7572,2.7553,2.7522,2.7574,2.7592,2.76,2.7496,2.7495,2.7494,2.7494,0,0,2.7505,2.7506,2.7515,2.7518,2.7522,2.7538,2.7564,2.7577,2.7587,2.7596,2.7615,2.764,2.7622,2.7629,2.7618,2.7637,2.7685,2.7615,2.7615,2.7626,2.7734,2.7746,2.7755,2.7673,2.7675,2.7676,2.7732,0,2.7566,2.7609,2.7597,2.764,2.7658,2.7633,2.7655,2.766,2.7656,2.767,2.7666,2.7683,2.7659,2.7662,2.768,2.7675,2.7706,2.7671,2.769,2.7691,2.7687,2.7765,2.7779,2.7832,2.774,2.7741,2.7742,0,2.7643,2.7653,2.7698,2.7697,2.7705,2.7725,2.7735,2.775,2.7754,2.7749,2.7756,2.7742,2.7765,2.7736,2.7767,2.7744,2.7751,2.775,2.7752,2.7751,2.7718,2.7765,2.7849,2.7857,2.7753,2.7752,2.7751,0,2.7702,2.7727,2.7757,2.7761,2.7761,2.7775,2.7776,2.7779,2.7787,2.7796,2.7801,2.7813,2.7819,2.7829,2.7817,2.7797,2.785,2.782,2.7845,2.7846,2.7856,2.7855,2.7941,2.7864,2.7864,2.7864,2.7864,0,2.7771,2.7798,2.7783,2.7801,2.7831,2.7816,2.7846,2.7844,2.7846,2.7862,2.7842,2.7858,2.7843,2.7857,2.7848,2.7874,2.7878,2.7874,2.7871,2.7875,2.7875,2.7878,2.7873,2.7866,2.7866,2.7865,2.7865,0,2.7841,2.7832,2.7862,2.786,2.786,2.7882,2.7879,2.7895,2.789,2.791,2.7915,2.7906,2.7921,2.7911,2.7927,2.792,2.7954,2.7947,2.7953,2.795,2.7976,2.7972,2.8064,2.8075,2.7993,2.7994,2.7995,0,2.7884,2.7905,2.7904,2.7914,2.7916,2.7932,2.794,2.7926,2.7935,2.794,2.7955,2.7969,2.7979,2.8004,2.7999,2.801,2.8002,2.8033,2.8004,2.8006,2.8,2.7998,2.7999,2.8039,2.804,2.8041,2.8041,0,2.7962,2.7956,2.7968,2.7978,2.7988,2.7996,2.8002,2.8011,2.7997,2.8008,2.8023,2.8031,2.8046,2.8059,2.8069,2.8069,2.8052,2.8051,2.8057,2.806,2.8061,2.8059,2.7967,2.8048,2.8048,2.8047,2.8047,2.8047,2.8018,2.8034,2.8036,2.805,2.8053,2.8059,2.8073,2.8069,2.8081,2.8092,2.8083,2.8101,2.8103,2.8114,2.8116,2.8129,2.8116,2.8126,2.8128,2.813,2.8132,2.8061,2.8131,2.8131,2.8131,2.8131,2.813,0,2.8092,2.8092,2.8105,2.8113,2.8124,2.8108,2.8113,2.8123,2.8139,2.8142,2.8152,2.8169,2.8181,2.8177,2.8187,2.8199,2.8191,2.8202,2.82,2.82,2.8144,2.8137,2.8208,2.8208,2.8208,2.8208,2.8208,2.8208,2.8132,2.8158,2.8152,2.8179,2.8178,2.8195,2.8199,2.8204,2.8206,2.8225,2.8235,2.8232,2.8232,2.8243,2.8253,2.8251,2.8255,2.8268,2.8264,2.8212,2.8204,2.8197,2.8189,2.827,2.827,2.8318,2.8318,2.8318]}]]